Wind_Speed
17 17 16 15 13 11 10 9 7 6 5 7 7 7 8 9 9 8 7 7 7 8 8 8 8 7 8 8 8 8 8 8 8 8 8 9 8 7 6 5 5 5 3 2
18 17 17 17 16 14 12 12 10 10 9 9 10 10 10 10 10 9 8 7 6 7 8 7 7 6 7 7 7 7 7 8 7 7 7 8 8 8 7 6 6 6 4 3
16 16 19 19 17 17 16 15 14 13 12 13 13 13 11 10 9 9 8 8 6 7 7 6 6 6 6 6 6 6 7 7 6 6 6 7 7 7 7 7 6 6 5 5
17 18 20 19 18 19 18 16 16 16 16 16 16 16 13 13 13 11 9 9 9 9 8 7 7 6 6 5 5 5 6 6 6 6 6 6 6 6 7 7 7 6 6 6
18 19 20 19 19 20 20 19 19 19 19 18 18 19 16 15 15 13 11 11 11 11 10 9 8 7 6 6 5 5 5 5 5 5 6 6 6 7 7 7 7 7 7 7
18 19 20 20 20 21 22 22 22 23 22 21 20 21 17 15 14 15 15 14 13 12 11 10 8 9 8 7 6 6 5 5 5 6 6 7 7 7 8 8 8 8 8 8
18 18 19 19 20 21 23 24 24 24 24 23 21 22 19 16 16 16 15 15 14 12 12 11 11 11 9 8 8 8 7 6 7 7 7 8 8 8 9 9 9 9 9 9
20 19 19 20 20 21 23 25 25 25 24 23 22 22 19 18 18 17 16 15 13 13 12 12 11 10 10 9 9 9 8 8 8 9 9 9 9 9 9 10 10 10 10 10
22 21 20 20 21 22 23 26 25 26 25 26 25 22 18 18 17 17 17 16 16 15 13 11 10 11 11 11 11 11 10 11 11 10 11 11 11 11 11 11 11 11 11 11
22 22 20 20 22 23 25 26 27 27 27 29 26 23 21 18 18 17 17 17 17 16 13 12 12 13 13 13 13 12 13 13 13 13 12 13 13 13 13 13 13 13 13 13
23 23 21 22 23 22 24 27 28 28 29 29 28 25 22 20 19 19 18 18 18 17 16 15 16 16 16 15 15 15 15 15 15 15 15 15 15 15 15 15 15 15 15 14
26 26 25 24 23 24 25 26 27 29 29 29 29 27 24 23 21 20 20 18 18 18 17 17 17 17 17 17 18 18 17 17 17 18 18 18 18 17 17 17 17 17 16 16
28 28 28 26 25 26 27 28 28 29 30 30 30 27 25 24 22 22 21 20 20 20 20 19 18 19 19 19 20 20 20 19 19 20 20 20 20 20 19 19 19 19 18 18
30 30 30 29 27 27 29 29 29 30 32 31 31 29 27 26 25 24 23 23 23 23 23 22 21 21 21 21 21 22 22 21 21 21 22 22 22 22 22 22 22 22 21 20
31 31 31 31 29 29 30 29 30 32 33 32 30 30 28 28 26 26 27 27 27 26 26 24 23 23 23 23 23 23 23 23 23 23 23 24 24 24 25 25 25 24 24 23
33 33 33 33 32 32 32 31 31 33 34 34 32 31 30 30 29 28 29 29 28 28 27 25 26 26 25 25 25 24 24 24 24 25 25 25 25 25 26 26 26 26 25 25
34 34 35 35 35 35 35 34 34 34 35 35 34 33 32 31 31 30 30 31 30 29 28 28 28 29 28 27 26 26 25 26 26 26 27 27 26 26 26 26 27 27 27 27
36 35 35 36 36 37 34 34 36 37 38 38 36 35 34 33 32 32 32 32 32 32 33 32 31 30 30 29 28 27 28 28 28 28 28 28 28 28 28 28 29 29 29 29
36 36 35 36 37 36 34 34 35 37 38 38 38 36 34 34 34 33 33 32 32 33 33 33 31 31 30 30 30 30 30 29 29 29 30 30 30 30 30 30 30 30 30 31
36 36 36 36 36 36 34 34 35 36 38 38 38 38 37 35 34 33 32 32 31 32 32 33 33 31 32 32 32 31 30 30 30 31 31 31 31 31 31 31 31 31 31 31
35 35 36 36 36 35 34 34 34 37 38 37 38 38 39 38 36 33 33 32 31 31 32 32 33 32 32 32 32 32 32 31 31 32 32 32 32 32 32 32 32 33 33 33
33 34 35 36 37 36 34 35 36 37 38 38 37 37 36 36 36 35 33 33 32 32 33 33 33 33 32 32 32 32 32 31 32 32 33 33 33 33 33 33 33 34 34 33
33 34 34 36 36 36 35 36 36 37 37 37 37 35 34 34 35 36 35 34 34 35 35 34 34 33 32 32 32 32 31 32 32 33 33 33 33 33 33 33 34 34 33 33
32 33 34 35 35 35 35 35 36 36 37 37 37 36 35 35 35 35 36 37 37 36 36 36 36 35 34 33 33 32 32 32 32 33 33 33 32 33 33 32 32 32 32 32
32 33 34 35 34 34 34 34 35 35 35 36 35 34 35 35 34 37 37 36 35 35 35 36 36 35 34 34 33 32 32 32 32 32 32 32 32 32 31 30 30 30 30 31
28 31 33 34 33 33 33 34 34 34 34 34 34 33 33 34 34 35 35 35 35 35 35 34 34 34 33 32 32 31 32 31 31 31 31 31 31 31 31 30 30 30 31 31
Wind_Direction
214 213 208 209 213 217 227 242 247 250 268 279 292 298 304 316 322 335 339 346 357 3 11 14 17 25 27 28 29 33 34 35 35 35 37 37 36 39 39 34 35 32 29 30
219 217 210 213 217 223 231 239 238 242 252 272 282 282 293 298 308 319 328 331 337 349 0 4 3 10 18 22 23 24 26 29 30 29 29 30 30 28 26 27 24 20 13 4
223 216 214 215 216 221 231 232 239 246 253 264 269 270 275 281 296 305 310 322 326 325 345 349 345 349 357 5 12 16 16 20 23 22 25 24 19 19 20 19 15 10 5 358
223 218 220 219 220 224 223 228 236 243 250 254 257 265 269 280 286 291 294 308 323 323 324 324 322 320 336 338 347 359 4 7 12 16 14 13 11 10 11 9 4 360 352 344
228 225 227 226 223 223 223 226 232 239 248 251 253 260 263 268 273 281 290 298 313 308 311 309 304 301 312 318 323 333 346 352 356 3 5 1 358 354 353 355 354 350 344 337
232 230 231 232 229 226 224 230 233 237 244 248 250 258 259 263 271 275 282 289 299 296 294 295 291 293 296 299 305 317 318 328 336 342 345 347 345 344 343 341 341 340 337 334
236 234 235 233 233 230 229 232 237 239 243 245 247 255 260 264 269 271 273 279 287 289 283 280 287 286 286 288 288 295 302 312 320 321 322 327 328 329 332 331 328 330 328 326
239 237 238 236 237 235 234 236 238 243 245 245 247 254 258 259 264 267 269 275 280 282 277 273 278 280 283 285 284 288 296 298 304 307 309 313 316 319 322 325 323 323 323 317
243 242 239 239 239 239 236 238 241 245 246 248 251 254 253 254 256 261 268 272 273 270 267 266 268 270 276 279 282 288 292 293 296 300 304 304 306 311 313 313 313 312 312 311
248 248 244 241 240 240 241 241 240 242 247 250 253 252 252 251 249 256 265 269 270 270 268 265 264 269 270 272 277 281 287 292 295 296 298 298 300 303 304 305 305 306 306 304
251 253 246 241 240 240 240 240 240 242 246 250 255 253 251 253 251 253 255 262 269 268 270 268 270 267 269 272 277 280 283 287 290 292 292 293 293 295 297 298 298 299 300 300
251 252 247 243 244 242 240 241 242 243 246 251 255 253 250 252 251 249 251 257 262 266 268 267 268 267 266 270 273 276 279 283 286 287 287 289 289 290 292 293 294 296 295 294
250 251 250 245 243 243 242 241 241 244 247 249 251 253 249 249 249 249 254 254 260 264 269 267 268 273 273 271 272 275 278 280 281 283 285 286 287 288 289 289 290 291 291 291
250 251 251 249 246 245 246 245 243 245 246 246 247 250 250 251 251 250 253 256 263 265 268 268 271 272 274 272 272 275 277 278 280 282 283 284 284 285 285 286 286 287 288 289
249 251 251 250 246 244 245 246 244 243 245 246 247 247 249 251 254 252 253 258 262 265 268 267 270 272 273 271 269 272 274 276 279 281 283 283 283 283 282 283 284 284 286 286
248 250 249 248 247 246 245 245 245 244 244 246 248 247 247 249 253 255 254 256 259 266 269 268 268 270 271 270 268 270 271 273 277 280 282 282 282 283 283 282 282 283 285 285
249 249 249 248 249 248 246 244 244 243 243 246 247 247 248 249 250 252 252 254 257 262 264 266 269 269 271 270 268 269 271 274 277 279 281 281 282 283 283 281 281 282 282 283
249 249 249 250 249 249 249 245 244 244 245 246 247 248 247 248 249 251 253 255 257 261 263 265 266 266 268 268 267 268 271 274 276 278 280 280 279 279 280 280 279 280 280 281
252 251 251 252 251 251 248 245 244 244 246 246 247 247 246 248 250 250 252 255 257 260 263 264 265 266 267 268 268 270 272 274 276 277 278 279 278 277 278 278 278 278 278 279
250 252 253 253 251 250 248 246 245 247 247 246 247 246 246 248 249 251 254 256 257 259 262 264 264 265 267 268 269 270 271 273 275 277 279 279 278 277 277 278 278 277 278 278
249 251 252 252 251 251 249 249 249 250 249 248 248 249 249 248 249 251 252 254 257 260 263 263 265 267 270 270 269 271 271 273 274 276 278 279 278 277 277 278 278 277 277 277
248 249 250 251 251 250 251 251 251 252 250 250 249 249 248 248 246 247 250 253 256 259 262 264 267 269 270 270 270 271 273 273 273 275 277 277 276 275 276 277 278 278 277 276
249 249 250 251 252 252 252 252 252 251 252 252 253 251 247 246 245 247 251 254 258 260 263 266 269 270 269 269 270 272 273 273 274 275 276 276 275 274 275 277 276 277 277 278
248 248 251 252 253 253 253 253 254 255 253 254 254 253 251 247 246 250 253 255 257 259 262 266 268 269 269 269 270 272 272 272 273 274 275 276 275 275 276 276 277 278 279 278
248 249 250 251 253 255 256 255 255 255 254 252 251 252 251 249 250 251 253 254 256 259 262 265 267 268 269 270 269 269 270 271 272 274 274 275 276 277 277 278 277 279 280 279
247 248 249 251 253 256 255 254 255 254 253 252 250 250 252 249 251 251 251 253 256 258 260 262 263 265 267 268 267 268 270 271 272 274 276 277 278 278 278 277 277 279 281 281
Height
5904 5907 5908 5910 5911 5912 5913 5913 5914 5915 5915 5916 5915 5915 5916 5916 5915 5916 5915 5915 5914 5914 5913 5912 5911 5910 5909 5908 5907 5906 5905 5903 5902 5901 5900 5899 5898 5897 5896 5896 5895 5895 5894 5894
5902 5903 5905 5906 5908 5909 5910 5911 5912 5913 5913 5914 5914 5914 5914 5915 5915 5915 5914 5914 5913 5913 5912 5912 5911 5910 5909 5908 5907 5906 5905 5904 5902 5901 5900 5900 5899 5898 5897 5896 5895 5894 5894 5893
5898 5901 5901 5902 5904 5905 5907 5909 5910 5910 5911 5911 5912 5913 5912 5913 5913 5912 5913 5912 5911 5912 5912 5911 5911 5910 5909 5908 5907 5906 5905 5904 5903 5902 5901 5900 5899 5898 5897 5896 5895 5894 5893 5892
5894 5897 5897 5898 5900 5901 5903 5905 5906 5907 5908 5908 5910 5909 5910 5910 5910 5910 5910 5911 5910 5911 5911 5910 5910 5909 5909 5908 5907 5906 5905 5904 5903 5901 5900 5899 5899 5898 5897 5896 5895 5894 5892 5892
5890 5892 5893 5894 5896 5897 5899 5901 5902 5903 5904 5905 5906 5906 5908 5908 5907 5908 5908 5908 5909 5909 5909 5909 5908 5908 5907 5906 5906 5905 5904 5903 5902 5901 5900 5899 5898 5897 5896 5895 5894 5893 5891 5890
5886 5888 5889 5891 5892 5893 5895 5897 5898 5899 5900 5901 5902 5902 5903 5904 5904 5905 5905 5905 5905 5906 5906 5906 5907 5906 5905 5905 5904 5903 5903 5902 5901 5900 5899 5898 5897 5896 5895 5894 5893 5891 5890 5889
5881 5883 5885 5886 5888 5889 5891 5893 5893 5894 5895 5896 5898 5897 5899 5900 5900 5900 5901 5901 5901 5901 5902 5903 5904 5904 5903 5903 5902 5902 5901 5901 5900 5899 5898 5897 5896 5895 5894 5892 5891 5890 5888 5887
5876 5878 5880 5881 5883 5884 5886 5887 5889 5890 5890 5892 5893 5892 5895 5896 5896 5896 5897 5897 5897 5898 5899 5900 5901 5901 5901 5901 5900 5900 5899 5899 5898 5897 5896 5895 5894 5893 5891 5890 5889 5887 5886 5885
5870 5873 5875 5876 5878 5879 5880 5881 5883 5885 5885 5886 5887 5888 5890 5890 5891 5891 5892 5893 5893 5894 5895 5896 5897 5898 5898 5898 5898 5897 5897 5897 5895 5895 5894 5893 5892 5890 5889 5888 5886 5885 5883 5882
5864 5866 5869 5871 5872 5873 5875 5876 5878 5878 5879 5879 5881 5882 5885 5886 5886 5887 5888 5888 5889 5890 5890 5891 5893 5893 5894 5894 5894 5894 5894 5893 5892 5891 5891 5890 5889 5887 5886 5885 5883 5881 5880 5878
5858 5860 5863 5864 5865 5867 5868 5870 5871 5872 5873 5874 5875 5879 5880 5881 5881 5882 5883 5883 5884 5885 5886 5887 5888 5889 5890 5889 5890 5890 5890 5889 5888 5887 5887 5886 5885 5883 5882 5881 5879 5878 5876 5874
5851 5852 5854 5857 5859 5860 5861 5863 5864 5866 5867 5867 5868 5873 5874 5875 5876 5876 5877 5878 5879 5880 5881 5882 5883 5883 5884 5885 5885 5885 5885 5884 5884 5883 5882 5881 5880 5879 5878 5877 5875 5874 5872 5870
5843 5845 5847 5849 5853 5854 5854 5855 5857 5858 5859 5860 5861 5866 5867 5868 5870 5871 5871 5872 5873 5874 5875 5876 5877 5878 5879 5879 5879 5880 5880 5879 5879 5878 5877 5876 5875 5874 5873 5871 5870 5868 5867 5865
5835 5837 5839 5842 5843 5845 5846 5848 5849 5850 5851 5853 5855 5858 5860 5862 5864 5865 5865 5866 5867 5869 5869 5870 5871 5872 5873 5873 5873 5874 5874 5874 5873 5872 5871 5870 5869 5868 5867 5865 5864 5863 5862 5860
5827 5829 5830 5832 5835 5836 5838 5840 5842 5842 5844 5846 5848 5850 5853 5855 5857 5858 5859 5860 5861 5862 5863 5864 5865 5866 5867 5867 5867 5867 5868 5868 5867 5866 5865 5864 5863 5861 5860 5859 5858 5857 5855 5854
5818 5820 5822 5824 5826 5827 5829 5831 5833 5834 5836 5838 5841 5843 5845 5847 5849 5850 5852 5854 5854 5855 5855 5856 5858 5859 5859 5860 5860 5860 5861 5861 5860 5859 5858 5857 5855 5854 5853 5852 5851 5850 5849 5847
5809 5810 5812 5814 5816 5817 5820 5824 5824 5826 5828 5830 5832 5836 5837 5839 5841 5843 5844 5846 5847 5848 5848 5849 5851 5852 5852 5852 5853 5853 5853 5853 5852 5851 5850 5849 5848 5847 5846 5845 5844 5843 5841 5840
5799 5801 5802 5804 5806 5807 5814 5814 5815 5817 5819 5821 5823 5826 5829 5831 5833 5834 5836 5838 5839 5839 5840 5841 5842 5843 5844 5844 5844 5844 5844 5844 5844 5843 5842 5841 5840 5839 5838 5837 5836 5835 5833 5832
5789 5791 5792 5794 5795 5797 5802 5804 5806 5807 5810 5813 5815 5817 5819 5821 5823 5825 5827 5829 5830 5831 5832 5832 5833 5834 5835 5835 5835 5835 5835 5835 5835 5834 5833 5832 5831 5831 5830 5828 5827 5826 5825 5823
5779 5780 5782 5783 5785 5787 5793 5795 5796 5798 5800 5804 5806 5808 5810 5812 5814 5817 5819 5820 5821 5823 5824 5825 5825 5825 5825 5826 5826 5826 5826 5826 5826 5825 5824 5823 5822 5821 5820 5819 5818 5817 5816 5814
5770 5770 5772 5774 5774 5777 5783 5785 5788 5790 5792 5794 5796 5798 5800 5802 5805 5808 5809 5811 5812 5814 5815 5816 5816 5816 5817 5817 5817 5816 5817 5817 5816 5815 5814 5813 5812 5811 5810 5809 5808 5807 5806 5805
5759 5761 5763 5764 5765 5771 5773 5775 5778 5778 5781 5783 5786 5788 5790 5793 5795 5797 5799 5802 5803 5805 5806 5806 5807 5807 5807 5807 5807 5807 5807 5807 5806 5805 5804 5803 5802 5801 5800 5799 5798 5797 5795 5794
5750 5752 5753 5755 5758 5761 5763 5764 5766 5767 5770 5772 5775 5777 5779 5782 5785 5787 5790 5792 5793 5795 5796 5797 5797 5798 5797 5797 5797 5797 5797 5797 5796 5795 5795 5794 5792 5791 5790 5789 5788 5786 5785 5784
5741 5743 5744 5745 5747 5750 5753 5754 5756 5758 5760 5762 5764 5767 5769 5771 5775 5777 5779 5781 5783 5785 5786 5786 5787 5787 5788 5788 5787 5787 5787 5787 5786 5786 5785 5784 5783 5781 5780 5778 5777 5777 5776 5775
5733 5734 5735 5736 5738 5740 5742 5744 5746 5748 5750 5752 5753 5756 5758 5761 5764 5766 5768 5771 5773 5774 5775 5776 5776 5777 5777 5777 5777 5778 5778 5777 5777 5776 5775 5774 5773 5772 5771 5769 5768 5767 5767 5766
5724 5725 5726 5727 5730 5731 5733 5735 5737 5738 5740 5742 5744 5746 5748 5751 5753 5754 5757 5760 5762 5763 5764 5765 5766 5766 5767 5767 5768 5768 5768 5767 5767 5767 5766 5765 5764 5762 5761 5760 5759 5758 5758 5757